Location: Observatory
(52.1446°N, 0.4624°W)
Time: 19:59:16
(UTC+01:00)

ISS - Pass Details

Date: 26 May 2019
Orbit: 408 x 418 km, 51.6° (Epoch: 17 June)

Event Time Altitude Azimuth Distance (km) Brightness Sun altitude
Rises 23:57:08 0° 282° (WNW) 2,362 0.4 -15.6°
Reaches altitude 10° 23:59:16 10° 276° (W) 1,499 -0.7 -15.7°
Maximum altitude 00:02:30 46° 202° (SSW) 569 -3.5 -15.8°
Enters shadow 00:03:09 40° 166° (SSE) 631 -3.4 -15.8°
